When you browse on this site, cookies collect data to enhance your experience and personalize the content and advertising you see.
Visit our Privacy Policy to learn more. By continuing to use the site, you agree to this use of cookies and data.
  • In Schweiz
  • Länderverzeichnis
  • Für 7 Tage
  • Wassertemperatur
  • Satellitenkarten
  • Wetterkarte
  • Widgets
  • user-avatar
    Anmelden

    Stündliche Wetter Lausanne

    Heute, 26 Juni, Mittwoch

    Zeit Temperatur Niederschläge Wind Luftdruck Luftfeuchtigkeit
    00:00 +25°C° 0 mm 1 m/S 728 mmHg 75%
    01:00 +24°C° 0 mm 1 m/S 728 mmHg 75%
    02:00 +24°C° 0 mm 1 m/S 727 mmHg 74%
    03:00 +24°C° 0 mm 1 m/S 727 mmHg 74%
    04:00 +25°C° 0 mm 1 m/S 728 mmHg 74%
    05:00 +26°C° 0 mm 1 m/S 728 mmHg 74%
    06:00 +27°C° 0 mm 1 m/S 728 mmHg 74%
    07:00 +29°C° 0 mm 1 m/S 728 mmHg 69%
    08:00 +31°C° 0 mm 1 m/S 728 mmHg 63%
    09:00 +33°C° 0 mm 1 m/S 728 mmHg 58%
    10:00 +34°C° 0 mm 1 m/S 728 mmHg 55%
    11:00 +35°C° 0 mm 1 m/S 728 mmHg 52%
    12:00 +36°C° 0 mm 1 m/S 728 mmHg 49%
    13:00 +36°C° 0 mm 1 m/S 728 mmHg 47%
    14:00 +36°C° 0 mm 1 m/S 728 mmHg 46%
    15:00 +36°C° 0 mm 1 m/S 728 mmHg 45%
    16:00 +33°C° 0 mm 0 m/S 728 mmHg 53%
    17:00 +31°C° 0 mm 0 m/S 728 mmHg 61%
    18:00 +30°C° 0 mm 0 m/S 728 mmHg 69%
    19:00 +28°C° 0 mm 0 m/S 728 mmHg 70%
    20:00 +28°C° 0 mm 1 m/S 728 mmHg 70%
    21:00 +27°C° 0 mm 1 m/S 728 mmHg 70%
    22:00 +26°C° 0 mm 1 m/S 728 mmHg 70%
    23:00 +26°C° 0 mm 1 m/S 728 mmHg 69%

    Morgen, 27 Juni, Donnerstag

    Zeit Temperatur Niederschläge Wind Luftdruck Luftfeuchtigkeit
    00:00 +25°C° 0 mm 1 m/S 728 mmHg 69%
    01:00 +25°C° 0 mm 1 m/S 728 mmHg 67%
    02:00 +24°C° 0 mm 1 m/S 728 mmHg 66%
    03:00 +24°C° 0 mm 1 m/S 727 mmHg 65%
    04:00 +25°C° 0 mm 1 m/S 728 mmHg 66%
    05:00 +26°C° 0 mm 1 m/S 728 mmHg 66%
    06:00 +28°C° 0 mm 1 m/S 728 mmHg 67%
    07:00 +30°C° 0 mm 1 m/S 728 mmHg 61%
    08:00 +31°C° 0 mm 1 m/S 728 mmHg 56%
    09:00 +33°C° 0 mm 1 m/S 728 mmHg 50%
    10:00 +34°C° 0 mm 1 m/S 728 mmHg 46%
    11:00 +35°C° 0 mm 1 m/S 727 mmHg 43%
    12:00 +36°C° 0 mm 1 m/S 727 mmHg 39%
    13:00 +36°C° 0 mm 1 m/S 727 mmHg 39%
    14:00 +37°C° 0 mm 2 m/S 727 mmHg 40%
    15:00 +37°C° 0 mm 2 m/S 727 mmHg 40%
    16:00 +36°C° 0 mm 2 m/S 726 mmHg 48%
    17:00 +34°C° 0 mm 2 m/S 726 mmHg 56%
    18:00 +32°C° 0 mm 2 m/S 726 mmHg 64%
    19:00 +30°C° 0 mm 2 m/S 726 mmHg 65%
    20:00 +28°C° 0 mm 2 m/S 726 mmHg 66%
    21:00 +27°C° 0 mm 2 m/S 727 mmHg 67%
    22:00 +26°C° 0 mm 2 m/S 727 mmHg 70%
    23:00 +25°C° 0 mm 3 m/S 726 mmHg 72%

    übermorgen, 28 Juni, Freitag

    Zeit Temperatur Niederschläge Wind Luftdruck Luftfeuchtigkeit
    00:00 +25°C° 0 mm 3 m/S 726 mmHg 75%
    01:00 +24°C° 0 mm 3 m/S 726 mmHg 77%
    02:00 +22°C° 0 mm 3 m/S 726 mmHg 79%
    03:00 +22°C° 0 mm 3 m/S 726 mmHg 81%
    04:00 +24°C° 0 mm 2 m/S 725 mmHg 79%
    05:00 +24°C° 0 mm 2 m/S 725 mmHg 77%
    06:00 +25°C° 0 mm 2 m/S 725 mmHg 75%
    07:00 +27°C° 0 mm 2 m/S 725 mmHg 70%
    08:00 +28°C° 0 mm 2 m/S 725 mmHg 64%
    09:00 +30°C° 0 mm 2 m/S 725 mmHg 59%
    10:00 +31°C° 0 mm 3 m/S 725 mmHg 56%
    11:00 +33°C° 0 mm 3 m/S 725 mmHg 54%
    12:00 +34°C° 0 mm 3 m/S 724 mmHg 51%
    13:00 +34°C° 0 mm 3 m/S 724 mmHg 50%
    14:00 +34°C° 0 mm 3 m/S 724 mmHg 49%
    15:00 +34°C° 0 mm 3 m/S 724 mmHg 48%
    16:00 +31°C° 0 mm 3 m/S 724 mmHg 54%
    17:00 +29°C° 0 mm 3 m/S 724 mmHg 60%
    18:00 +28°C° 0 mm 3 m/S 724 mmHg 66%
    19:00 +26°C° 0 mm 3 m/S 724 mmHg 69%
    20:00 +25°C° 0 mm 3 m/S 724 mmHg 71%
    21:00 +22°C° 0 mm 3 m/S 724 mmHg 74%
    22:00 +22°C° 0 mm 3 m/S 724 mmHg 75%
    23:00 +21°C° 0 mm 3 m/S 724 mmHg 76%

    29 Juni, Samstag

    Zeit Temperatur Niederschläge Wind Luftdruck Luftfeuchtigkeit
    00:00 +20°C° 0 mm 2 m/S 723 mmHg 77%
    01:00 +20°C° 0 mm 2 m/S 723 mmHg 78%
    02:00 +19°C° 0 mm 2 m/S 723 mmHg 79%
    03:00 +19°C° 0 mm 2 m/S 723 mmHg 80%
    04:00 +20°C° 0 mm 2 m/S 723 mmHg 78%
    05:00 +21°C° 0 mm 2 m/S 723 mmHg 77%
    06:00 +23°C° 0 mm 1 m/S 723 mmHg 76%
    07:00 +25°C° 0 mm 1 m/S 723 mmHg 70%
    08:00 +27°C° 0 mm 1 m/S 723 mmHg 64%
    09:00 +29°C° 0 mm 1 m/S 724 mmHg 59%
    10:00 +30°C° 0 mm 1 m/S 723 mmHg 56%
    11:00 +31°C° 0 mm 1 m/S 723 mmHg 52%
    12:00 +32°C° 0 mm 1 m/S 723 mmHg 49%
    13:00 +32°C° 0 mm 1 m/S 723 mmHg 48%
    14:00 +33°C° 0 mm 1 m/S 723 mmHg 46%
    15:00 +33°C° 0 mm 1 m/S 723 mmHg 45%
    16:00 +32°C° 0 mm 1 m/S 723 mmHg 53%
    17:00 +29°C° 0 mm 0 m/S 723 mmHg 60%
    18:00 +27°C° 0 mm 0 m/S 723 mmHg 67%
    19:00 +26°C° 0 mm 0 m/S 723 mmHg 67%
    20:00 +26°C° 0 mm 1 m/S 724 mmHg 66%
    21:00 +24°C° 0 mm 1 m/S 724 mmHg 66%
    22:00 +24°C° 0 mm 1 m/S 724 mmHg 65%
    23:00 +23°C° 0 mm 1 m/S 724 mmHg 65%

    30 Juni, Sonntag

    Zeit Temperatur Niederschläge Wind Luftdruck Luftfeuchtigkeit
    00:00 +23°C° 0 mm 1 m/S 724 mmHg 65%
    01:00 +23°C° 0 mm 1 m/S 724 mmHg 64%
    02:00 +22°C° 0 mm 1 m/S 724 mmHg 64%
    03:00 +22°C° 0 mm 1 m/S 724 mmHg 63%
    04:00 +23°C° 0 mm 1 m/S 724 mmHg 64%
    05:00 +25°C° 0 mm 1 m/S 724 mmHg 65%
    06:00 +26°C° 0 mm 1 m/S 725 mmHg 66%
    07:00 +28°C° 0 mm 1 m/S 725 mmHg 61%
    08:00 +30°C° 0 mm 1 m/S 725 mmHg 55%
    09:00 +32°C° 0 mm 1 m/S 725 mmHg 49%
    10:00 +32°C° 0 mm 1 m/S 725 mmHg 47%
    11:00 +33°C° 0 mm 1 m/S 725 mmHg 44%
    12:00 +34°C° 0 mm 1 m/S 725 mmHg 41%
    13:00 +34°C° 0 mm 1 m/S 725 mmHg 41%
    14:00 +34°C° 0 mm 1 m/S 725 mmHg 41%
    15:00 +35°C° 0 mm 1 m/S 724 mmHg 42%
    16:00 +31°C° 0 mm 0 m/S 724 mmHg 50%
    17:00 +30°C° 0 mm 0 m/S 724 mmHg 58%
    18:00 +29°C° 0 mm 0 m/S 724 mmHg 66%
    19:00 +27°C° 0 mm 0 m/S 724 mmHg 67%
    20:00 +27°C° 0 mm 1 m/S 725 mmHg 68%
    21:00 +25°C° 0 mm 1 m/S 725 mmHg 70%
    22:00 +25°C° 0 mm 1 m/S 725 mmHg 70%
    23:00 +25°C° 0 mm 1 m/S 724 mmHg 69%

    1 Juli, Montag

    Zeit Temperatur Niederschläge Wind Luftdruck Luftfeuchtigkeit
    00:00 +24°C° 0 mm 1 m/S 724 mmHg 69%
    01:00 +24°C° 0 mm 1 m/S 724 mmHg 68%
    02:00 +24°C° 0 mm 1 m/S 724 mmHg 67%
    03:00 +23°C° 0 mm 1 m/S 724 mmHg 67%
    04:00 +24°C° 0 mm 1 m/S 724 mmHg 68%
    05:00 +25°C° 0 mm 1 m/S 724 mmHg 69%
    06:00 +26°C° 0 mm 1 m/S 725 mmHg 70%
    07:00 +28°C° 0.1 mm 1 m/S 725 mmHg 66%
    08:00 +29°C° 0.1 mm 1 m/S 725 mmHg 62%
    09:00 +31°C° 0.1 mm 1 m/S 725 mmHg 58%
    10:00 +32°C° 0.1 mm 1 m/S 724 mmHg 56%
    11:00 +33°C° 0.1 mm 1 m/S 724 mmHg 53%
    12:00 +34°C° 0.1 mm 1 m/S 724 mmHg 51%
    13:00 +33°C° 0.1 mm 1 m/S 724 mmHg 52%
    14:00 +33°C° 0.1 mm 1 m/S 724 mmHg 54%
    15:00 +34°C° 0.1 mm 2 m/S 723 mmHg 55%
    16:00 +31°C° 1.1 mm 2 m/S 723 mmHg 65%
    17:00 +29°C° 1.1 mm 2 m/S 723 mmHg 75%
    18:00 +27°C° 1.1 mm 2 m/S 724 mmHg 85%
    19:00 +26°C° 1.4 mm 2 m/S 724 mmHg 87%
    20:00 +24°C° 1.4 mm 2 m/S 724 mmHg 89%
    21:00 +23°C° 1.4 mm 2 m/S 725 mmHg 91%
    22:00 +23°C° 0.8 mm 2 m/S 724 mmHg 91%
    23:00 +22°C° 0.8 mm 1 m/S 724 mmHg 91%
    Mehr zeigen